Date String (YYYY-MM-DD hh:mm:ss) UTC,Instrument flags,absolute air pressure of the measurement (hPa),sample flow rate (lpm),inlet stack bypass flow (lpm),air temperature of the measurement (°C),ambient temperature measured by the external sensor (°C),aerosol sample conditioner tube jacket temperature (°C),OPC LED temperature (°C),internal box temperature (°C),relative humidity of the measurement (%),span deviation,mass concentration of particles derived from Lorenz-Mie calculation of OPC scattering (μg/m³),mass concentration of particles derived from Lorenz-Mie calculation of OPC scattering (μg/m³),mass concentration of particles derived from Lorenz-Mie calculation of OPC scattering (μg/m³)
DateTimeUTC,F1_M11,P_M11,Q1_M11,Q2_M11,T1_M11,T2_M11,T3_M11,T4_M11,T5_M11,U1_M11,ZSPAN_M11,X0_M11,X2_M11,X1_M11
2023-10-25 03:00:00,SystemResetWarning,0827.4,5.00,000.00,028.8,027.6,000.0,037.1,030.5,21.5,0000.0,0013.57,0004.68,0003.57
2023-10-25 03:01:00,SystemResetWarning,0827.4,5.00,000.00,028.8,027.6,000.0,037.1,030.5,21.4,0000.0,0013.14,0004.74,0003.59
2023-10-25 03:02:00,SystemResetWarning,0827.4,5.00,000.00,028.8,027.6,000.0,037.1,030.5,21.3,0000.0,0012.95,0004.76,0003.60
2023-10-25 03:03:00,SystemResetWarning,0827.4,5.00,000.00,028.8,027.6,000.0,037.1,030.5,21.2,0000.0,0012.74,0004.74,0003.61
2023-10-25 03:04:00,SystemResetWarning,0827.7,5.00,000.00,028.8,027.6,000.0,037.2,030.6,21.2,0000.0,0012.60,0004.78,0003.62
2023-10-25 03:05:00,SystemResetWarning,0827.5,5.01,000.00,028.9,027.7,000.0,037.2,030.6,21.2,0000.0,0012.45,0004.79,0003.63
2023-10-25 03:06:00,SystemResetWarning,0827.7,5.01,000.00,028.9,027.7,000.0,037.2,030.6,21.2,0000.0,0012.60,0004.83,0003.65
2023-10-25 03:07:00,SystemResetWarning,0827.5,5.00,000.00,028.9,027.7,000.0,037.2,030.6,21.2,0000.0,0011.34,0004.85,0003.67
2023-10-25 03:08:00,SystemResetWarning,0827.5,5.00,000.00,028.9,027.7,000.0,037.2,030.6,21.2,0000.0,0011.43,0004.86,0003.70
2023-10-25 03:09:00,SystemResetWarning,0827.4,5.00,000.00,028.9,027.7,000.0,037.2,030.6,21.2,0000.0,0011.14,0004.85,0003.71
2023-10-25 03:10:00,SystemResetWarning,0827.4,5.00,000.00,029.0,027.7,000.0,037.3,030.6,21.2,0000.0,0011.98,0004.85,0003.71
2023-10-25 03:11:00,SystemResetWarning,0827.4,5.00,000.00,029.0,027.7,000.0,037.3,030.6,21.2,0000.0,0012.46,0004.91,0003.74
2023-10-25 03:12:00,SystemResetWarning,0827.4,5.00,000.00,029.0,027.7,000.0,037.3,030.6,21.1,0000.0,0011.97,0004.83,0003.75
2023-10-25 03:13:00,SystemResetWarning,0827.4,5.00,000.00,029.0,027.7,000.0,037.3,030.7,20.9,0000.0,0011.75,0004.81,0003.74
2023-10-25 03:14:00,SystemResetWarning,0827.5,5.00,000.00,029.0,027.5,000.0,037.4,030.7,20.7,0000.0,0011.72,0004.81,0003.74
2023-10-25 03:15:00,SystemResetWarning,0827.4,5.00,000.00,029.0,025.6,000.0,037.3,030.5,20.7,0000.0,0012.01,0004.86,0003.73
2023-10-25 03:16:00,SystemResetWarning,0827.4,5.00,000.00,028.9,024.3,000.0,037.2,030.3,20.6,0000.0,0011.89,0004.82,0003.74
2023-10-25 03:17:00,SystemResetWarning,0827.4,5.01,000.00,028.7,024.2,000.0,037.2,030.0,20.8,0000.0,0011.72,0004.82,0003.74
2023-10-25 03:18:00,SystemResetWarning,0827.4,5.01,000.00,028.6,024.6,000.0,037.2,029.9,20.9,0000.0,0011.75,0004.84,0003.76
2023-10-25 03:19:00,SystemResetWarning,0827.9,4.99,000.00,028.5,025.0,000.0,037.1,029.9,21.2,0000.0,0011.55,0004.87,0003.75
2023-10-25 03:20:00,SystemResetWarning,0827.8,4.99,000.00,028.5,025.3,000.0,037.1,029.9,21.0,0000.0,0011.27,0004.89,0003.76
2023-10-25 03:21:00,SystemResetWarning,0827.9,5.00,000.00,028.4,025.7,000.0,037.1,030.0,20.6,0000.0,0010.99,0004.90,0003.77
2023-10-25 03:22:00,SystemResetWarning,0827.6,5.01,000.00,028.4,026.0,000.0,037.1,030.0,20.6,0000.0,0010.47,0004.83,0003.77
2023-10-25 03:23:00,SystemResetWarning,0827.8,5.01,000.00,028.4,026.2,000.0,037.0,030.0,20.6,0000.0,0010.75,0004.85,0003.78
2023-10-25 03:24:00,SystemResetWarning,0827.9,5.00,000.00,028.4,026.4,000.0,037.0,030.0,20.4,0000.0,0010.97,0004.91,0003.80
2023-10-25 03:25:00,SystemResetWarning,0827.8,4.99,000.00,028.4,026.6,000.0,037.0,030.1,20.4,0000.0,0011.47,0004.97,0003.82
2023-10-25 03:26:00,SystemResetWarning,0828.0,5.00,000.00,028.4,026.7,000.0,037.0,030.1,20.4,0000.0,0011.15,0004.94,0003.83
2023-10-25 03:27:00,SystemResetWarning,0827.5,5.00,000.00,028.5,026.8,000.0,037.0,030.1,20.4,0000.0,0011.16,0004.97,0003.84
2023-10-25 03:28:00,SystemResetWarning,0827.4,5.01,000.00,028.5,026.9,000.0,037.0,030.1,20.3,0000.0,0011.30,0004.97,0003.84
2023-10-25 03:29:00,SystemResetWarning,0827.5,5.01,000.00,028.5,027.0,000.0,037.0,030.1,20.3,0000.0,0011.40,0004.97,0003.84
2023-10-25 03:30:00,SystemResetWarning,0827.6,5.01,000.00,028.5,027.1,000.0,037.0,030.2,20.3,0000.0,0011.51,0004.97,0003.85
2023-10-25 03:31:00,SystemResetWarning,0827.5,5.00,000.00,028.5,027.1,000.0,037.0,030.2,20.4,0000.0,0011.26,0004.99,0003.87
2023-10-25 03:32:00,SystemResetWarning,0827.6,4.99,000.00,028.5,027.2,000.0,037.0,030.2,20.5,0000.0,0010.55,0005.01,0003.88
2023-10-25 03:33:00,SystemResetWarning,0827.6,5.00,000.00,028.6,027.2,000.0,037.0,030.2,20.5,0000.0,0010.70,0005.09,0003.89
2023-10-25 03:34:00,SystemResetWarning,0827.6,5.00,000.00,028.6,027.3,000.0,037.0,030.2,20.5,0000.0,0010.51,0005.12,0003.91
2023-10-25 03:35:00,SystemResetWarning,0827.7,5.00,000.00,028.6,027.3,000.0,037.0,030.3,20.5,0000.0,0010.40,0005.14,0003.93
2023-10-25 03:36:00,SystemResetWarning,0827.6,5.00,000.00,028.6,027.3,000.0,037.0,030.3,20.5,0000.0,0009.97,0005.15,0003.95
2023-10-25 03:37:00,SystemResetWarning,0827.7,5.00,000.00,028.7,027.4,000.0,037.0,030.3,20.4,0000.0,0009.96,0005.15,0003.97
2023-10-25 03:38:00,SystemResetWarning,0827.7,5.00,000.00,028.7,027.4,000.0,037.1,030.3,20.4,0000.0,0010.69,0005.16,0003.98
2023-10-25 03:39:00,SystemResetWarning,0827.7,5.00,000.00,028.7,027.4,000.0,037.1,030.4,20.4,0000.0,0010.90,0005.16,0003.99
2023-10-25 03:40:00,SystemResetWarning,0827.7,5.00,000.00,028.7,027.4,000.0,037.1,030.4,20.4,0000.0,0011.11,0005.16,0003.99
2023-10-25 03:41:00,SystemResetWarning,0827.7,5.00,000.00,028.7,027.5,000.0,037.1,030.4,20.4,0000.0,0011.21,0005.10,0003.99
2023-10-25 03:42:00,SystemResetWarning,0827.7,5.00,000.00,028.7,027.5,000.0,037.1,030.4,20.4,0000.0,0011.15,0005.09,0003.98
2023-10-25 03:43:00,SystemResetWarning,0827.7,5.00,000.00,028.8,027.5,000.0,037.1,030.4,20.4,0000.0,0011.26,0005.12,0003.98
2023-10-25 03:44:00,SystemResetWarning,0827.7,5.00,000.00,028.8,027.5,000.0,037.1,030.4,20.4,0000.0,0011.26,0005.12,0003.99
2023-10-25 03:45:00,SystemResetWarning,0827.7,5.00,000.00,028.8,027.6,000.0,037.1,030.4,20.4,0000.0,0011.44,0005.12,0003.99
2023-10-25 03:46:00,SystemResetWarning,0827.8,5.00,000.00,028.8,027.6,000.0,037.2,030.5,20.3,0000.0,0011.66,0005.10,0003.98
2023-10-25 03:47:00,SystemResetWarning,0827.7,5.00,000.00,028.8,027.6,000.0,037.2,030.5,20.3,0000.0,0011.69,0005.08,0003.98
2023-10-25 03:48:00,SystemResetWarning,0827.7,5.00,000.00,028.9,027.6,000.0,037.2,030.5,20.4,0000.0,0011.92,0005.10,0003.99
2023-10-25 03:49:00,SystemResetWarning,0827.7,5.00,000.00,028.9,027.6,000.0,037.2,030.5,20.4,0000.0,0011.55,0005.09,0004.02
2023-10-25 03:50:00,SystemResetWarning,0827.7,5.00,000.00,028.9,027.6,000.0,037.2,030.6,20.4,0000.0,0011.34,0005.11,0004.05
2023-10-25 03:51:00,SystemResetWarning,0827.7,5.00,000.00,028.9,027.6,000.0,037.2,030.5,20.4,0000.0,0011.16,0005.14,0004.09
2023-10-25 03:52:00,SystemResetWarning,0827.7,5.00,000.00,028.9,027.7,000.0,037.3,030.5,20.4,0000.0,0010.87,0005.19,0004.12
2023-10-25 03:53:00,SystemResetWarning,0827.7,5.00,000.00,028.9,027.7,000.0,037.3,030.6,20.4,0000.0,0010.99,0005.25,0004.14
2023-10-25 03:54:00,SystemResetWarning,0827.7,5.00,000.00,028.9,027.7,000.0,037.3,030.6,20.4,0000.0,0010.90,0005.22,0004.15
2023-10-25 03:55:00,SystemResetWarning,0827.7,5.00,000.00,029.0,027.7,000.0,037.3,030.6,20.3,0000.0,0010.93,0005.21,0004.16
2023-10-25 03:56:00,SystemResetWarning,0827.7,5.00,000.00,029.0,027.7,000.0,037.3,030.6,20.3,0000.0,0011.09,0005.25,0004.16
2023-10-25 03:57:00,SystemResetWarning,0827.7,5.00,000.00,029.0,027.7,000.0,037.3,030.6,20.2,0000.0,0011.63,0005.27,0004.17
2023-10-25 03:58:00,SystemResetWarning,0827.7,5.00,000.00,029.0,027.7,000.0,037.3,030.6,20.3,0000.0,0013.02,0005.33,0004.19
2023-10-25 03:59:00,SystemResetWarning,0827.7,5.00,000.00,029.0,027.7,000.0,037.4,030.6,20.3,0000.0,0014.06,0005.32,0004.18
